[ ตารางข้อมูล ] [ Min-Max ] [ วันนี้4 ] [ วันนี้2 ] [ เทียบ3วัน A ] [ เทียบ4วัน B ]   

วันนี้2   [ ◀ ช่วงเก่ากว่า ] [ ช่วงที่ 310 ] [ ช่วงใหม่กว่า ▶ ] [ ล่าสุด ]    [ 3 ชั่วโมง ] [ 6 ชั่วโมง ] [ 12 ชั่วโมง ] [ 24 ชั่วโมง ]   วันนี้2

อุณภูมิตู้ Knockdown4529  ราย 3 ชั่วโมง  ที่วัดได้ ในช่วงวันเวลา 31/03/2026 (16:35) ถึง 31/03/2026 (19:35) 
ความชื้นในตู้ Knockdown4529  ราย 3 ชั่วโมง  ที่วัดได้ ในช่วงวันเวลา 31/03/2026 (16:35) ถึง 31/03/2026 (19:35) 

 
DS18B20SHTC3 
IDDate d/m/Y & Timedata1
สูง
data2
ต่ำ
data3
นอก
temp
pcb
hum
pcb
Time
 7590  31/03/2026 19:34:10  30.5  30.4  29.4  30.4  72.2  19:34 
 7589  31/03/2026 19:29:28  30.6  30.5  29.4  30.5  72.2  19:29 
 7588  31/03/2026 19:24:47  30.6  30.5  29.4  30.6  72.3  19:24 
 7587  31/03/2026 19:20:06  30.6  30.5  29.4  30.4  72.2  19:20 
 7586  31/03/2026 19:15:24  30.6  30.6  29.4  30.6  72.3  19:15 
 7585  31/03/2026 19:10:42  30.7  30.6  29.4  30.7  72.3  19:10 
 7584  31/03/2026 19:06:01  30.7  30.6  29.3  30.7  72.3  19:06 
 7583  31/03/2026 19:01:19  30.8  30.6  29.3  30.7  72.4  19:01 
 7582  31/03/2026 18:56:37  30.8  30.6  29.4  30.7  72.4  18:56 
 7581  31/03/2026 18:51:55  30.8  30.7  29.4  30.6  72.3  18:51 
 7580  31/03/2026 18:47:14  30.8  30.7  29.4  30.7  72.3  18:47 
 7579  31/03/2026 18:42:32  30.8  30.8  29.4  30.8  72.2  18:42 
 7578  31/03/2026 18:37:50  30.9  30.8  29.4  30.9  72.1  18:37 
 7577  31/03/2026 18:33:09  30.9  30.9  29.5  30.8  72.4  18:33 
 7576  31/03/2026 18:28:26  31.0  30.9  29.5  31.0  72.3  18:28 
 7575  31/03/2026 18:23:43  31.0  31.0  29.5  31.0  71.8  18:23 
 7574  31/03/2026 18:19:02  31.0  31.0  29.6  30.8  71.7  18:19 
 7573  31/03/2026 18:14:19  31.1  31.1  29.7  30.8  71.7  18:14 
 7572  31/03/2026 18:09:37  31.1  31.1  29.7  31.0  71.6  18:09 
 7571  31/03/2026 18:04:55  31.1  31.1  29.7  31.0  71.6  18:04 
 7570  31/03/2026 18:00:13  31.2  31.1  29.7  31.1  71.5  18:00 
 7569  31/03/2026 17:55:31  31.2  31.2  29.8  31.1  71.4  17:55 
 7568  31/03/2026 17:50:49  31.2  31.2  29.9  31.1  71.4  17:50 
 7567  31/03/2026 17:46:07  31.2  31.2  29.9  31.2  71.2  17:46 

Data every 5 minute.


ใช้เวลาประมวลผล 0.00190 วินาที